Terminal Aerodrome Forecast
Issued by NWS Green Bay, WI

Home | Current Version | Previous Version | Graphics & Text | Print | Product List | Glossary On
Versions: 1 2 3 4 5 6 7 8 9 10 11 12 13 14 15 16 17 18 19 20 21 22 23 24 25 26 27 28 29 30 31 32 33 34 35 36 37 38 39 40 41 42 43
000
FTUS43 KGRB 261400 AAA
TAFGRB
TAF AMD
KGRB 261420Z 2614/2712 00000KT 1SM BR SCT120
     FM261500 00000KT 2SM BR BKN120
     FM261600 VRB03KT 5SM BR BKN020 OVC060
     FM270300 35004KT 6SM BR OVC018
     FM270900 02005KT 5SM -SN BR BKN015=

USA.gov is the U.S. government's official web portal to all federal, state and local government web resources and services.